Winfield, KS

4:47 PM CDT on October 17, 2017 (GMT -0500)
Strother

Weather History for KWLD - January, 2014

Change the Weather History Date:

Friday, January 24, 2014

  Actual Average Record
Temperature  
Mean Temperature 24 °F -  
Max Temperature 46 °F 43 °F 71 °F (2017)
Min Temperature 3 °F 23 °F 3 °F (2014)
Degree Days  
Heating Degree Days 40    
Moisture  
Dew Point 7 °F    
Average Humidity 45    
Maximum Humidity 70    
Minimum Humidity 27    
Precipitation  
Precipitation 0.00 in - - ()
Sea Level Pressure  
Sea Level Pressure 30.36 in    
Wind  
Wind Speed 12 mph (SSW)    
Max Wind Speed 28 mph    
Max Gust Speed 40 mph    
Visibility 10 miles    
Events      
Averages and records for this station are not official NWS values.
T = Trace of Precipitation, MM = Missing Value Source: NWS Daily Summary

Daily Weather History Graph

Daily Weather History Graph

Search for Another Location

Airport or City:

Trip Planner

Search our weather history database for the weather conditions in past years. The results will help you decide how hot, cold, wet, or windy it might be!

Date:

Astronomy

Jan. 24, 2014 Rise Set
Actual Time 7:36 AM CST 5:44 PM CST
Civil Twilight 7:08 AM CST 6:12 PM CST
Nautical Twilight 6:37 AM CST 6:43 PM CST
Astronomical Twilight 6:06 AM CST 7:14 PM CST
Moon 1:07 AM CST (1/24) 12:02 PM CST (1/24)
Length of Visible Light 11h 03m
Length of Day
10h 07m
Last Quarter, 44% of the Moon is Illuminated
Jan 24
Last Quarter
Jan 30
New
Feb 6
First Quarter
Feb 14
Full
Feb 22
Last Quarter

Hourly Weather History & Observations

Time (CST) Temp. Windchill Dew Point Humidity Pressure Visibility Wind Dir Wind Speed Gust Speed Precip Events Conditions
12:54 AM 3.9 °F - -5.1 °F 66% 30.78 in 10.0 mi Calm Calm - N/A   Clear
1:54 AM 3.9 °F -8.2 °F -4.0 °F 70% 30.75 in 10.0 mi SSW 6.9 mph - N/A   Clear
2:54 AM 3.9 °F -6.9 °F -4.0 °F 70% 30.73 in 10.0 mi SSW 5.8 mph - N/A   Clear
3:54 AM 7.0 °F -6.6 °F -2.9 °F 64% 30.69 in 10.0 mi SSW 9.2 mph - N/A   Clear
4:54 AM 9.0 °F -5.1 °F -2.0 °F 61% 30.66 in 10.0 mi SW 10.4 mph - N/A   Clear
5:54 AM 6.1 °F -5.6 °F -2.9 °F 67% 30.63 in 10.0 mi SW 6.9 mph - N/A   Clear
6:54 AM 9.0 °F -5.9 °F -2.0 °F 61% 30.61 in 10.0 mi SSW 11.5 mph - N/A   Clear
7:54 AM 10.9 °F -5.4 °F -2.0 °F 56% 30.57 in 10.0 mi SSW 15.0 mph - N/A   Clear
8:54 AM 16.0 °F -1.3 °F -0.9 °F 47% 30.51 in 10.0 mi SSW 20.7 mph 25.3 mph N/A   Clear
9:54 AM 23.0 °F 6.9 °F -0.9 °F 35% 30.47 in 10.0 mi SSW 24.2 mph 33.4 mph N/A   Clear
10:54 AM 30.0 °F 16.3 °F 3.0 °F 32% 30.44 in 10.0 mi SW 24.2 mph 31.1 mph N/A   Clear
11:54 AM 34.0 °F 21.3 °F 7.0 °F 32% 30.38 in 10.0 mi SSW 25.3 mph - N/A   Clear
12:54 PM 37.9 °F 26.3 °F 8.1 °F 29% 30.30 in 10.0 mi SSW 26.5 mph 33.4 mph N/A   Clear
1:54 PM 43.0 °F 32.9 °F 10.9 °F 27% 30.23 in 10.0 mi SSW 27.6 mph 34.5 mph N/A   Clear
2:54 PM 44.1 °F 34.8 °F 12.9 °F 28% 30.17 in 10.0 mi SW 25.3 mph 40.3 mph N/A   Clear
3:54 PM 46.0 °F 38.3 °F 15.1 °F 29% 30.14 in 10.0 mi SW 20.7 mph 31.1 mph N/A   Clear
4:54 PM 46.0 °F 39.3 °F 15.1 °F 29% 30.12 in 10.0 mi SW 16.1 mph - N/A   Clear
5:54 PM 41.0 °F 34.3 °F 15.1 °F 35% 30.12 in 10.0 mi SSW 11.5 mph - N/A   Clear
6:54 PM 41.0 °F 33.5 °F 16.0 °F 36% 30.11 in 10.0 mi SSW 13.8 mph - N/A   Clear
7:54 PM 39.0 °F 31.0 °F 16.0 °F 39% 30.08 in 10.0 mi SSW 13.8 mph - N/A   Clear
8:54 PM 37.0 °F 28.9 °F 16.0 °F 42% 30.06 in 10.0 mi SSW 12.7 mph - N/A   Clear
9:54 PM 37.0 °F 28.9 °F 16.0 °F 42% 30.04 in 10.0 mi SSW 12.7 mph - N/A   Clear
10:54 PM 37.0 °F 28.1 °F 16.0 °F 42% 30.01 in 10.0 mi SW 15.0 mph - N/A   Clear
11:54 PM 37.9 °F 29.6 °F 16.0 °F 41% 29.99 in 10.0 mi WSW 13.8 mph - N/A   Clear